Regional Weather Roundup
Issued by NWS

Home | Current Version | Previous Version | Text Only | Print | Product List | Glossary Off
Versions: 1 2 3 4 5 6 7 8 9 10 11 12 13 14 15 16 17 18 19 20 21 22 23 24 25 26 27

000
ASUS45 KCYS 100810
RWRWY

WYOMING REGIONAL WEATHER ROUNDUP
NATIONAL WEATHER SERVICE CHEYENNE WY
100 AM MST SAT DEC 10 2016

NOTE:  "FAIR" INDICATES FEW OR NO CLOUDS BELOW 12,000 FEET
WITH NO SIGNIFICANT WEATHER AND/OR OBSTRUCTIONS TO VISIBILITY.

WYZ001-100900-
YELLOWSTONE NATIONAL PARK

CITY           SKY/WX    TMP DP  RH WIND       PRES   REMARKS
LK YELLOWSTONE   N/A     26  23  88 VRB5      29.87F WCI  20
W YELLOWSTONE  NOT AVBL

$$
WYZ002>013-054>058-071-098>099-100900-
NORTHERN WYOMING

CITY           SKY/WX    TMP DP  RH WIND       PRES   REMARKS
JACKSON        MOCLDY    30  28  93 W9        29.91F WCI  22
CODY           FAIR       5   1  83 CALM      29.90F
GREYBULL       FAIR       9   3  77 CALM      29.98F
WORLAND        FAIR       4   1  88 S3        29.95F
SHERIDAN       MOCLDY     8   4  83 W5        29.96F WCI   0
BUFFALO        FAIR       9   1  70 SE8       29.91F WCI  -3
GILLETTE       FAIR       7   3  84 S16       29.97F WCI -11
HULETT         CLOUDY     3   0  85 CALM      30.02F
NEWCASTLE      LGT SNOW   3   0  85 SE3       30.06F

$$
WYZ014>020-022>026-101>103-100900-
CENTRAL WYOMING

CITY           SKY/WX    TMP DP  RH WIND       PRES   REMARKS
BIG PINEY      CLOUDY    18  16  92 CALM      29.99F FOG
PINEDALE       LGT SNOW  27  27 100 SE5       30.00F WCI  21
DUBOIS         CLOUDY    30  25  80 NW12      29.84F WCI  21
LANDER         FAIR      15   8  73 VRB3G23   29.88F
RIVERTON       FAIR      11   5  77 CALM      29.91F
CASPER         FAIR       7   3  84 CALM      29.90F
DOUGLAS        FAIR      11   6  81 SE3       29.95F

$$
WYZ021-027>030-104>119-100900-
SOUTHERN WYOMING

CITY           SKY/WX    TMP DP  RH WIND       PRES   REMARKS
EVANSTON       CLOUDY    36  22  56 SW13      30.01F WCI  27
KEMMERER         N/A     30  27  86 SW8       30.00F WCI  23
FORT BRIDGER   FAIR      33  23  64 W14       30.03F WCI  24
ROCK SPRINGS   FAIR      29  23  78 W9        30.01F WCI  20
DIXON          CLOUDY    37  24  59 W10G16    30.10F WCI  29
RAWLINS        MOCLDY    34  21  59 W17G28    29.99F WCI  23
SARATOGA       CLOUDY    34  25  69 S7        30.04F WCI  28
LARAMIE        CLOUDY    35  23  61 SW10        N/A  WCI  27
CHEYENNE       MOCLDY    25  19  78 SW8       30.01F WCI  16
TORRINGTON     FAIR      13   7  77 SE15      30.00F WCI  -3
PINE BLUFFS    CLOUDY    23  19  86 W15G22    30.05S WCI  10

$$




USA.gov is the U.S. government's official web portal to all federal, state and local government web resources and services.